Regional Weather Roundup
Issued by NWS

Home | Current Version | Previous Version | Graphics & Text | Print | Product List | Glossary On
Versions: 1 2 3 4 5 6 7 8 9 10 11 12 13 14 15 16 17 18 19 20 21 22 23 24 25 26 27 28 29 30 31 32 33 34 35 36 37 38 39 40 41 42 43 44 45 46 47 48 49 50
557
ASUS43 KFSD 191102
RWRSD

WEATHER ROUNDUP FOR SOUTH DAKOTA
NATIONAL WEATHER SERVICE SIOUX FALLS SD
500 AM CST THU JAN 19 2017

NOTE: "FAIR" INDICATES FEW OR NO CLOUDS BELOW 12,000 FEET WITH NO
SIGNIFICANT WEATHER AND/OR OBSTRUCTIONS TO VISIBILITY.


SDZ001>005-009-010-012>017-191200-
NORTHWEST AND NORTH CENTRAL SOUTH DAKOTA

CITY           SKY/WX    TMP DP  RH WIND       PRES   REMARKS
BUFFALO          N/A     30  19  63 W8        29.45F WCI  22
FAITH            N/A     19  15  84 W5        29.52F WCI  12
MOBRIDGE       CLOUDY    14  10  84 CALM      29.54F
$$

SDZ012>016-024>037-041>051-057-063-072>074-191200-
SOUTHWEST AND SOUTH CENTRAL SOUTH DAKOTA

CITY           SKY/WX    TMP DP  RH WIND       PRES   REMARKS
RAPID CTY ARPT CLOUDY    25  18  74 CALM      29.53F
PIERRE         CLOUDY    14  12  92 CALM      29.57F
CUSTER         CLOUDY    30  12  47 W3        29.56F
ELLSWORTH AFB  CLOUDY    32  21  64 W5        29.52F WCI  27
PHILIP         CLOUDY    11   9  92 CALM      29.55F
PINE RIDGE     CLOUDY    26  19  74 W5        29.57F WCI  20
SPEARFISH      FAIR      32  19  59 VRB5      29.55F WCI  27
WINNER         FAIR      35  29  78 SW9       29.60S WCI  28
$$

SDZ004>011-016>023-039-040-191200-
NORTHEAST SOUTH DAKOTA

CITY           SKY/WX    TMP DP  RH WIND       PRES   REMARKS
ABERDEEN       FOG       18  14  84 SW5       29.64R VSB 1/4 WCI  11
WATERTOWN      CLOUDY    28  27  96 S8        29.65F FOG     WCI  20
BROOKINGS      CLEAR     33  31  92 S13       29.69F WCI  24
SISSETON         N/A     32  28  85 S7        29.63F WCI  26
$$

SDZ017-020-022-023-036>040-048>070-191200-
SOUTHEAST SOUTH DAKOTA

CITY           SKY/WX    TMP DP  RH WIND       PRES   REMARKS
SIOUX FALLS    CLEAR     36  34  92 S8        29.74R
HURON          CLOUDY    32  32 100 S12       29.64F WCI  23
CHAMBERLAIN    CLOUDY    34  32  94 S10       29.61F WCI  26
MITCHELL       CLEAR     33  33 100 SE10      29.68F WCI  25
YANKTON        CLEAR     34  30  86 SE6       29.72F WCI  29
$$

ABBREVIATIONS USED IN REMARKS
   TC - TEMPERATURE IN CELSIUS
  WCI - WIND CHILL INDEX
   HX - HEAT INDEX
  VSB - VISIBILITY





USA.gov is the U.S. government's official web portal to all federal, state and local government web resources and services.